Regional Weather Roundup
Issued by NWS

Home | Current Version | Previous Version | Graphics & Text | Print | Product List | Glossary On
Versions: 1 2 3 4 5 6 7 8 9 10 11 12 13 14 15 16 17 18 19 20 21 22 23 24 25 26 27 28 29 30 31 32 33 34 35 36 37 38 39 40 41 42 43 44 45 46 47 48 49 50
000
ASUS43 KFSD 011602
RWRSD

WEATHER ROUNDUP FOR SOUTH DAKOTA
NATIONAL WEATHER SERVICE SIOUX FALLS SD
1100 AM CDT TUE SEP 01 2015

NOTE: "FAIR" INDICATES FEW OR NO CLOUDS BELOW 12,000 FEET WITH NO
SIGNIFICANT WEATHER AND/OR OBSTRUCTIONS TO VISIBILITY.


SDZ001>005-009-010-012>017-011700-
NORTHWEST AND NORTH CENTRAL SOUTH DAKOTA

CITY           SKY/WX    TMP DP  RH WIND       PRES   REMARKS
BUFFALO          N/A     71  60  68 S5        29.82S
FAITH            N/A     74  61  63 S17       29.86S
MOBRIDGE       SUNNY     76  66  71 S12       29.84F
$$

SDZ012>016-024>037-041>051-057-063-072>074-011700-
SOUTHWEST AND SOUTH CENTRAL SOUTH DAKOTA

CITY           SKY/WX    TMP DP  RH WIND       PRES   REMARKS
RAPID CTY ARPT   N/A    N/A N/A N/A MISG      29.88R
PIERRE         SUNNY     77  67  71 SE14      29.85F
CUSTER         SUNNY     75  45  34 VRB7      30.03S
ELLSWORTH AFB  SUNNY     71  58  64 NE8       29.88R
PHILIP         SUNNY     78  65  63 S10       29.85F
PINE RIDGE     SUNNY     80  50  34 SW7       29.92S
WINNER         LGT RAIN  74  67  78 S7        29.88F
$$

SDZ004>011-016>023-039-040-011700-
NORTHEAST SOUTH DAKOTA

CITY           SKY/WX    TMP DP  RH WIND       PRES   REMARKS
ABERDEEN       SUNNY     78  67  68 SE10      29.88R
WATERTOWN      PTSUNNY   78  67  68 E9        29.90R
BROOKINGS      CLOUDY    73  68  83 SE6       29.93R
$$

SDZ017-020-022-023-036>040-048>070-011700-
SOUTHEAST SOUTH DAKOTA

CITY           SKY/WX    TMP DP  RH WIND       PRES   REMARKS
SIOUX FALLS    CLOUDY    75  69  81 S6        29.90R
HURON          CLOUDY    71  68  90 S10       29.91R FOG
CHAMBERLAIN    PTSUNNY   71  67  87 NE3       29.86F
MITCHELL       CLOUDY    70  68  93 CALM      29.90F FOG
YANKTON        PTSUNNY   75  66  73 S3        29.88R
$$

ABBREVIATIONS USED IN REMARKS
   TC - TEMPERATURE IN CELSIUS
  WCI - WIND CHILL INDEX
   HX - HEAT INDEX
  VSB - VISIBILITY




USA.gov is the U.S. government's official web portal to all federal, state and local government web resources and services.